LOCATION_NAME,SAMPLE COLLECTION TIME,DOSE EQUIVALENT RATE (nSv/h),GAMMA COUNT RATE R02 (CPM),GAMMA COUNT RATE R03 (CPM),GAMMA COUNT RATE R04 (CPM),GAMMA COUNT RATE R05 (CPM),GAMMA COUNT RATE R06 (CPM),GAMMA COUNT RATE R07 (CPM),GAMMA COUNT RATE R08 (CPM),GAMMA COUNT RATE R09 (CPM),STATUS
KY: LEXINGTON,01/03/2018 20:36:00,,2449.00,1346.00,373.00,188.00,116.00,133.00,82.00,47.00,APPROVED
KY: LEXINGTON,01/03/2018 21:36:00,,2540.00,1414.00,393.00,200.00,123.00,144.00,89.00,47.00,APPROVED
KY: LEXINGTON,01/03/2018 22:36:00,,2494.00,1379.00,388.00,200.00,122.00,143.00,88.00,48.00,APPROVED
KY: LEXINGTON,01/03/2018 23:36:00,,2474.00,1365.00,380.00,196.00,119.00,137.00,85.00,50.00,APPROVED
KY: LEXINGTON,01/04/2018 00:36:00,,2494.00,1372.00,384.00,197.00,121.00,136.00,83.00,48.00,APPROVED
KY: LEXINGTON,01/04/2018 01:37:00,,2545.00,1384.00,388.00,197.00,122.00,139.00,84.00,51.00,APPROVED
KY: LEXINGTON,01/04/2018 02:37:00,,2562.00,1398.00,395.00,199.00,124.00,144.00,83.00,49.00,APPROVED
KY: LEXINGTON,01/04/2018 03:37:00,,2600.00,1440.00,400.00,203.00,125.00,145.00,87.00,51.00,APPROVED
KY: LEXINGTON,01/04/2018 04:37:00,,2663.00,1480.00,411.00,212.00,128.00,153.00,90.00,48.00,APPROVED
KY: LEXINGTON,01/04/2018 05:37:00,,2740.00,1550.00,433.00,227.00,136.00,162.00,93.00,50.00,APPROVED
KY: LEXINGTON,01/04/2018 06:38:00,,2787.00,1628.00,455.00,243.00,139.00,171.00,97.00,52.00,APPROVED
KY: LEXINGTON,01/04/2018 07:38:00,,2876.00,1701.00,479.00,260.00,145.00,181.00,102.00,54.00,APPROVED
KY: LEXINGTON,01/04/2018 08:38:00,,2863.00,1681.00,472.00,253.00,146.00,182.00,100.00,53.00,APPROVED
KY: LEXINGTON,01/04/2018 09:38:00,,2848.00,1668.00,474.00,247.00,141.00,179.00,97.00,53.00,APPROVED
KY: LEXINGTON,01/04/2018 10:38:00,,2896.00,1692.00,480.00,251.00,146.00,182.00,96.00,52.00,APPROVED
KY: LEXINGTON,01/04/2018 11:39:00,,2942.00,1736.00,493.00,260.00,148.00,186.00,100.00,53.00,APPROVED
KY: LEXINGTON,01/04/2018 12:39:00,,2950.00,1748.00,497.00,258.00,150.00,192.00,100.00,53.00,APPROVED
KY: LEXINGTON,01/04/2018 13:39:00,,2943.00,1743.00,504.00,260.00,147.00,195.00,99.00,53.00,APPROVED
KY: LEXINGTON,01/04/2018 14:39:00,,2929.00,1742.00,495.00,255.00,147.00,189.00,101.00,54.00,APPROVED
KY: LEXINGTON,01/04/2018 15:39:00,,2849.00,1676.00,482.00,251.00,146.00,187.00,99.00,54.00,APPROVED
KY: LEXINGTON,01/04/2018 16:40:00,,2833.00,1648.00,476.00,245.00,144.00,179.00,97.00,55.00,APPROVED
KY: LEXINGTON,01/04/2018 17:40:00,,2807.00,1631.00,467.00,240.00,140.00,177.00,96.00,52.00,APPROVED
KY: LEXINGTON,01/04/2018 18:40:00,,2726.00,1576.00,450.00,234.00,138.00,170.00,93.00,53.00,APPROVED
KY: LEXINGTON,01/04/2018 19:40:00,,2658.00,1504.00,425.00,225.00,132.00,158.00,89.00,51.00,APPROVED
KY: LEXINGTON,01/04/2018 20:40:00,,2586.00,1450.00,409.00,211.00,127.00,151.00,87.00,51.00,APPROVED
KY: LEXINGTON,01/04/2018 21:41:00,,2576.00,1428.00,404.00,202.00,126.00,148.00,83.00,51.00,APPROVED
KY: LEXINGTON,01/04/2018 22:41:00,,2537.00,1405.00,397.00,198.00,122.00,145.00,81.00,50.00,APPROVED
KY: LEXINGTON,01/04/2018 23:41:00,,2571.00,1414.00,397.00,202.00,119.00,143.00,82.00,47.00,APPROVED
KY: LEXINGTON,01/05/2018 00:41:00,,2567.00,1409.00,397.00,199.00,124.00,144.00,83.00,51.00,APPROVED
KY: LEXINGTON,01/05/2018 01:41:00,,2614.00,1450.00,405.00,205.00,126.00,149.00,86.00,49.00,APPROVED
KY: LEXINGTON,01/05/2018 02:42:00,,2640.00,1473.00,410.00,209.00,129.00,154.00,85.00,49.00,APPROVED
KY: LEXINGTON,01/05/2018 03:42:00,,2675.00,1501.00,422.00,216.00,129.00,153.00,87.00,49.00,APPROVED
KY: LEXINGTON,01/05/2018 04:42:00,,2676.00,1504.00,426.00,216.00,128.00,160.00,88.00,50.00,APPROVED
KY: LEXINGTON,01/05/2018 05:42:00,,2672.00,1512.00,429.00,218.00,133.00,157.00,87.00,50.00,APPROVED
KY: LEXINGTON,01/05/2018 06:42:00,,2692.00,1524.00,431.00,218.00,132.00,160.00,87.00,52.00,APPROVED
KY: LEXINGTON,01/05/2018 07:43:00,,2708.00,1554.00,439.00,223.00,135.00,165.00,88.00,52.00,APPROVED
KY: LEXINGTON,01/05/2018 08:43:00,,2712.00,1543.00,442.00,223.00,133.00,162.00,87.00,51.00,APPROVED
KY: LEXINGTON,01/05/2018 09:43:00,,2689.00,1521.00,436.00,221.00,129.00,161.00,88.00,51.00,APPROVED
KY: LEXINGTON,01/05/2018 10:43:00,,2626.00,1464.00,413.00,209.00,126.00,154.00,82.00,49.00,APPROVED
KY: LEXINGTON,01/05/2018 11:43:00,,2595.00,1421.00,401.00,199.00,122.00,148.00,80.00,50.00,APPROVED
KY: LEXINGTON,01/05/2018 12:44:00,,2588.00,1403.00,402.00,192.00,123.00,145.00,80.00,50.00,APPROVED
KY: LEXINGTON,01/05/2018 13:44:00,,2588.00,1416.00,396.00,196.00,122.00,146.00,79.00,50.00,APPROVED
KY: LEXINGTON,01/05/2018 14:44:00,,2575.00,1409.00,398.00,198.00,121.00,146.00,78.00,49.00,APPROVED
KY: LEXINGTON,01/05/2018 16:44:00,,2531.00,1365.00,391.00,185.00,118.00,139.00,80.00,50.00,APPROVED
KY: LEXINGTON,01/05/2018 17:45:00,,2505.00,1352.00,385.00,187.00,118.00,138.00,77.00,50.00,APPROVED
KY: LEXINGTON,01/05/2018 18:45:00,,2485.00,1340.00,376.00,182.00,117.00,136.00,79.00,50.00,APPROVED
KY: LEXINGTON,01/05/2018 19:45:00,,2509.00,1342.00,380.00,183.00,116.00,135.00,80.00,49.00,APPROVED
KY: LEXINGTON,01/05/2018 20:45:00,,2509.00,1340.00,385.00,187.00,117.00,136.00,77.00,48.00,APPROVED
KY: LEXINGTON,01/05/2018 21:45:00,,2514.00,1358.00,386.00,188.00,119.00,138.00,80.00,49.00,APPROVED
KY: LEXINGTON,01/05/2018 22:46:00,,2524.00,1361.00,384.00,193.00,118.00,138.00,81.00,46.00,APPROVED
KY: LEXINGTON,01/05/2018 23:46:00,,2539.00,1378.00,388.00,193.00,123.00,139.00,79.00,49.00,APPROVED
KY: LEXINGTON,01/06/2018 00:46:00,,2553.00,1392.00,390.00,196.00,120.00,144.00,80.00,49.00,APPROVED
KY: LEXINGTON,01/06/2018 01:46:00,,2563.00,1413.00,404.00,201.00,122.00,145.00,83.00,48.00,APPROVED
KY: LEXINGTON,01/06/2018 02:46:00,,2586.00,1449.00,407.00,209.00,123.00,151.00,85.00,50.00,APPROVED
KY: LEXINGTON,01/06/2018 03:47:00,,2609.00,1466.00,412.00,211.00,128.00,154.00,88.00,50.00,APPROVED
KY: LEXINGTON,01/06/2018 04:47:00,,2567.00,1438.00,405.00,206.00,125.00,150.00,84.00,50.00,APPROVED
KY: LEXINGTON,01/06/2018 05:47:00,,2564.00,1410.00,396.00,200.00,126.00,147.00,84.00,50.00,APPROVED
KY: LEXINGTON,01/06/2018 06:47:00,,2564.00,1414.00,397.00,198.00,122.00,145.00,82.00,50.00,APPROVED
KY: LEXINGTON,01/06/2018 07:47:00,,2567.00,1424.00,398.00,203.00,122.00,146.00,82.00,49.00,APPROVED
KY: LEXINGTON,01/06/2018 08:48:00,,2581.00,1441.00,406.00,206.00,127.00,148.00,84.00,48.00,APPROVED
KY: LEXINGTON,01/06/2018 09:48:00,,2585.00,1429.00,412.00,201.00,124.00,147.00,83.00,50.00,APPROVED
KY: LEXINGTON,01/06/2018 10:48:00,,2603.00,1448.00,415.00,206.00,122.00,150.00,83.00,52.00,APPROVED
KY: LEXINGTON,01/06/2018 11:48:00,,2624.00,1472.00,418.00,209.00,126.00,160.00,83.00,50.00,APPROVED
KY: LEXINGTON,01/06/2018 12:48:00,,2620.00,1486.00,425.00,208.00,128.00,156.00,85.00,50.00,APPROVED
KY: LEXINGTON,01/06/2018 13:49:00,,2623.00,1473.00,421.00,212.00,127.00,155.00,85.00,50.00,APPROVED
KY: LEXINGTON,01/06/2018 14:49:00,,2588.00,1441.00,410.00,204.00,127.00,152.00,84.00,51.00,APPROVED
KY: LEXINGTON,01/06/2018 15:49:00,,2546.00,1404.00,397.00,198.00,123.00,145.00,82.00,50.00,APPROVED
KY: LEXINGTON,01/06/2018 16:49:00,,2522.00,1382.00,392.00,195.00,123.00,145.00,83.00,50.00,APPROVED
KY: LEXINGTON,01/06/2018 17:49:00,,2494.00,1374.00,388.00,194.00,122.00,138.00,81.00,48.00,APPROVED
KY: LEXINGTON,01/06/2018 18:50:00,,2471.00,1345.00,384.00,191.00,118.00,139.00,84.00,49.00,APPROVED
KY: LEXINGTON,01/06/2018 19:50:00,,2430.00,1318.00,374.00,189.00,114.00,132.00,80.00,47.00,APPROVED
KY: LEXINGTON,01/06/2018 20:50:00,,2407.00,1314.00,372.00,184.00,116.00,131.00,79.00,49.00,APPROVED
KY: LEXINGTON,01/06/2018 21:50:00,,2417.00,1308.00,367.00,183.00,116.00,133.00,81.00,48.00,APPROVED
KY: LEXINGTON,01/06/2018 22:50:00,,2425.00,1316.00,375.00,187.00,117.00,133.00,83.00,48.00,APPROVED
KY: LEXINGTON,01/06/2018 23:51:00,,2457.00,1332.00,373.00,183.00,114.00,133.00,78.00,48.00,APPROVED
KY: LEXINGTON,01/07/2018 00:51:00,,2485.00,1345.00,372.00,187.00,115.00,131.00,81.00,48.00,APPROVED
KY: LEXINGTON,01/07/2018 01:51:00,,2472.00,1336.00,375.00,185.00,116.00,137.00,79.00,50.00,APPROVED
KY: LEXINGTON,01/07/2018 02:51:00,,2486.00,1358.00,380.00,187.00,119.00,138.00,81.00,48.00,APPROVED
KY: LEXINGTON,01/07/2018 03:51:00,,2508.00,1373.00,384.00,193.00,118.00,141.00,81.00,49.00,APPROVED
KY: LEXINGTON,01/07/2018 04:52:00,,2525.00,1377.00,389.00,192.00,119.00,142.00,81.00,48.00,APPROVED
KY: LEXINGTON,01/07/2018 05:52:00,,2531.00,1383.00,390.00,193.00,120.00,141.00,80.00,50.00,APPROVED
KY: LEXINGTON,01/07/2018 06:52:00,,2551.00,1375.00,390.00,191.00,120.00,143.00,80.00,48.00,APPROVED
KY: LEXINGTON,01/07/2018 07:52:00,,2541.00,1384.00,387.00,193.00,121.00,144.00,80.00,49.00,APPROVED
KY: LEXINGTON,01/07/2018 08:52:00,,2575.00,1417.00,402.00,195.00,123.00,145.00,82.00,50.00,APPROVED
KY: LEXINGTON,01/07/2018 09:53:00,,2603.00,1436.00,406.00,201.00,124.00,149.00,82.00,50.00,APPROVED
KY: LEXINGTON,01/07/2018 10:53:00,,2617.00,1473.00,419.00,207.00,124.00,157.00,82.00,51.00,APPROVED
KY: LEXINGTON,01/07/2018 11:53:00,,2621.00,1476.00,423.00,211.00,129.00,157.00,84.00,50.00,APPROVED
KY: LEXINGTON,01/07/2018 12:53:00,,2607.00,1456.00,415.00,205.00,127.00,151.00,82.00,53.00,APPROVED
KY: LEXINGTON,01/07/2018 13:53:00,,2623.00,1459.00,416.00,207.00,125.00,152.00,83.00,49.00,APPROVED
KY: LEXINGTON,01/07/2018 14:54:00,,2609.00,1475.00,417.00,212.00,128.00,154.00,86.00,49.00,APPROVED
KY: LEXINGTON,01/07/2018 15:54:00,,2609.00,1475.00,417.00,213.00,129.00,155.00,90.00,50.00,APPROVED
KY: LEXINGTON,01/07/2018 16:54:00,,2619.00,1479.00,422.00,213.00,126.00,156.00,89.00,50.00,APPROVED
KY: LEXINGTON,01/07/2018 17:54:00,,2581.00,1458.00,417.00,213.00,129.00,151.00,91.00,50.00,APPROVED
KY: LEXINGTON,01/07/2018 18:54:00,,2523.00,1440.00,408.00,215.00,129.00,151.00,91.00,53.00,APPROVED
KY: LEXINGTON,01/07/2018 19:55:00,,2481.00,1411.00,402.00,212.00,127.00,146.00,92.00,51.00,APPROVED
KY: LEXINGTON,01/07/2018 20:55:00,,2444.00,1392.00,406.00,210.00,126.00,148.00,91.00,51.00,APPROVED
KY: LEXINGTON,01/07/2018 21:55:00,,2426.00,1389.00,400.00,208.00,128.00,149.00,89.00,52.00,APPROVED
KY: LEXINGTON,01/07/2018 22:55:00,,2470.00,1406.00,398.00,212.00,126.00,144.00,93.00,50.00,APPROVED
KY: LEXINGTON,01/07/2018 23:55:00,,2498.00,1419.00,398.00,214.00,129.00,147.00,90.00,51.00,APPROVED
KY: LEXINGTON,01/08/2018 00:56:00,,2520.00,1436.00,404.00,214.00,124.00,148.00,93.00,51.00,APPROVED
KY: LEXINGTON,01/08/2018 01:56:00,,2567.00,1470.00,414.00,224.00,132.00,152.00,93.00,53.00,APPROVED
KY: LEXINGTON,01/08/2018 02:56:00,,2567.00,1480.00,414.00,226.00,131.00,155.00,93.00,51.00,APPROVED
KY: LEXINGTON,01/08/2018 03:56:00,,2555.00,1482.00,420.00,222.00,131.00,156.00,94.00,53.00,APPROVED
KY: LEXINGTON,01/08/2018 04:56:00,,2617.00,1536.00,429.00,232.00,137.00,157.00,100.00,54.00,APPROVED
KY: LEXINGTON,01/08/2018 05:57:00,,2594.00,1497.00,424.00,226.00,131.00,156.00,94.00,52.00,APPROVED
KY: LEXINGTON,01/08/2018 06:57:00,,2565.00,1472.00,416.00,222.00,131.00,156.00,94.00,52.00,APPROVED
KY: LEXINGTON,01/08/2018 07:57:00,,2565.00,1480.00,413.00,219.00,132.00,154.00,94.00,51.00,APPROVED
KY: LEXINGTON,01/08/2018 08:57:00,,2563.00,1479.00,417.00,221.00,133.00,153.00,95.00,53.00,APPROVED
KY: LEXINGTON,01/08/2018 09:57:00,,2603.00,1520.00,431.00,233.00,133.00,162.00,95.00,51.00,APPROVED
KY: LEXINGTON,01/08/2018 10:58:00,,2662.00,1553.00,438.00,237.00,137.00,163.00,99.00,54.00,APPROVED
KY: LEXINGTON,01/08/2018 11:58:00,,2680.00,1573.00,447.00,245.00,137.00,163.00,96.00,52.00,APPROVED
KY: LEXINGTON,01/08/2018 12:58:00,,2740.00,1632.00,461.00,255.00,140.00,172.00,104.00,54.00,APPROVED
KY: LEXINGTON,01/08/2018 13:58:00,,2827.00,1710.00,488.00,270.00,150.00,180.00,104.00,54.00,APPROVED
KY: LEXINGTON,01/08/2018 14:58:00,,2876.00,1757.00,498.00,282.00,152.00,186.00,110.00,53.00,APPROVED
KY: LEXINGTON,01/08/2018 15:59:00,,2851.00,1718.00,489.00,275.00,152.00,183.00,108.00,55.00,APPROVED
KY: LEXINGTON,01/08/2018 16:59:00,,2736.00,1636.00,464.00,257.00,140.00,174.00,102.00,53.00,APPROVED
KY: LEXINGTON,01/08/2018 17:59:00,,2649.00,1556.00,445.00,240.00,138.00,167.00,100.00,53.00,APPROVED
KY: LEXINGTON,01/08/2018 18:59:00,,2585.00,1495.00,428.00,227.00,130.00,156.00,98.00,52.00,APPROVED
KY: LEXINGTON,01/08/2018 19:59:00,,2450.00,1385.00,393.00,208.00,124.00,145.00,88.00,52.00,APPROVED
KY: LEXINGTON,01/08/2018 21:00:00,,2412.00,1354.00,393.00,202.00,121.00,140.00,87.00,50.00,APPROVED
KY: LEXINGTON,01/08/2018 22:00:00,,2405.00,1355.00,395.00,204.00,121.00,141.00,88.00,49.00,APPROVED
KY: LEXINGTON,01/08/2018 23:00:00,,2412.00,1370.00,393.00,206.00,121.00,146.00,87.00,49.00,APPROVED
KY: LEXINGTON,01/09/2018 00:00:00,,2417.00,1397.00,400.00,213.00,126.00,149.00,90.00,51.00,APPROVED
KY: LEXINGTON,01/09/2018 01:00:00,,2405.00,1387.00,398.00,212.00,126.00,146.00,91.00,50.00,APPROVED
KY: LEXINGTON,01/09/2018 02:01:00,,2423.00,1391.00,400.00,217.00,125.00,149.00,91.00,51.00,APPROVED
KY: LEXINGTON,01/09/2018 03:01:00,,2453.00,1419.00,406.00,225.00,127.00,156.00,93.00,53.00,APPROVED
KY: LEXINGTON,01/09/2018 04:01:00,,2436.00,1421.00,407.00,221.00,128.00,155.00,94.00,52.00,APPROVED
KY: LEXINGTON,01/09/2018 05:01:00,,2444.00,1432.00,409.00,229.00,130.00,155.00,93.00,50.00,APPROVED
KY: LEXINGTON,01/09/2018 06:02:00,,2453.00,1428.00,402.00,224.00,130.00,151.00,94.00,52.00,APPROVED
KY: LEXINGTON,01/09/2018 07:02:00,,2460.00,1426.00,409.00,221.00,127.00,151.00,95.00,50.00,APPROVED
KY: LEXINGTON,01/09/2018 08:02:00,,2452.00,1433.00,414.00,227.00,129.00,155.00,96.00,50.00,APPROVED
KY: LEXINGTON,01/09/2018 09:02:00,,2471.00,1454.00,417.00,227.00,129.00,156.00,95.00,51.00,APPROVED
KY: LEXINGTON,01/09/2018 10:02:00,,2464.00,1450.00,415.00,228.00,130.00,155.00,94.00,53.00,APPROVED
KY: LEXINGTON,01/09/2018 11:03:00,,2448.00,1433.00,411.00,222.00,131.00,158.00,94.00,53.00,APPROVED
KY: LEXINGTON,01/09/2018 12:03:00,,2435.00,1423.00,404.00,221.00,131.00,153.00,94.00,50.00,APPROVED
KY: LEXINGTON,01/09/2018 13:03:00,,2436.00,1420.00,404.00,223.00,129.00,154.00,94.00,51.00,APPROVED
KY: LEXINGTON,01/09/2018 14:03:00,,2433.00,1423.00,406.00,221.00,128.00,155.00,97.00,52.00,APPROVED
KY: LEXINGTON,01/09/2018 14:49:00,,2421.00,1418.00,412.00,219.00,129.00,153.00,93.00,50.00,APPROVED
KY: LEXINGTON,01/09/2018 15:54:00,,2320.00,1276.00,358.00,185.00,116.00,129.00,82.00,48.00,APPROVED
KY: LEXINGTON,01/09/2018 16:54:00,,2295.00,1295.00,378.00,195.00,119.00,138.00,85.00,48.00,APPROVED
KY: LEXINGTON,01/09/2018 17:54:00,,2279.00,1307.00,388.00,202.00,121.00,141.00,89.00,49.00,APPROVED
KY: LEXINGTON,01/09/2018 18:54:00,,2286.00,1316.00,382.00,200.00,123.00,144.00,90.00,51.00,APPROVED
KY: LEXINGTON,01/09/2018 19:55:00,,2294.00,1322.00,388.00,208.00,122.00,145.00,91.00,49.00,APPROVED
KY: LEXINGTON,01/09/2018 20:55:00,,2307.00,1315.00,386.00,205.00,122.00,144.00,90.00,51.00,APPROVED
KY: LEXINGTON,01/09/2018 21:55:00,,2308.00,1325.00,389.00,201.00,123.00,145.00,90.00,49.00,APPROVED
KY: LEXINGTON,01/09/2018 22:55:00,,2316.00,1345.00,390.00,209.00,125.00,146.00,93.00,50.00,APPROVED
KY: LEXINGTON,01/09/2018 23:55:00,,2368.00,1362.00,395.00,212.00,123.00,147.00,93.00,51.00,APPROVED
KY: LEXINGTON,01/10/2018 00:56:00,,2386.00,1368.00,398.00,216.00,127.00,149.00,90.00,50.00,APPROVED
KY: LEXINGTON,01/10/2018 01:56:00,,2421.00,1392.00,398.00,218.00,126.00,148.00,93.00,50.00,APPROVED
KY: LEXINGTON,01/10/2018 02:56:00,,2430.00,1396.00,405.00,217.00,126.00,153.00,92.00,50.00,APPROVED
KY: LEXINGTON,01/10/2018 03:56:00,,2421.00,1404.00,405.00,214.00,129.00,148.00,92.00,50.00,APPROVED
KY: LEXINGTON,01/10/2018 04:56:00,,2425.00,1410.00,405.00,222.00,125.00,151.00,94.00,51.00,APPROVED
KY: LEXINGTON,01/10/2018 05:57:00,,2443.00,1425.00,411.00,224.00,128.00,154.00,94.00,51.00,APPROVED
KY: LEXINGTON,01/10/2018 06:57:00,,2462.00,1440.00,414.00,226.00,131.00,161.00,95.00,51.00,APPROVED
KY: LEXINGTON,01/10/2018 07:57:00,,2452.00,1449.00,420.00,226.00,131.00,160.00,93.00,54.00,APPROVED
KY: LEXINGTON,01/10/2018 08:57:00,,2446.00,1456.00,420.00,226.00,130.00,156.00,96.00,51.00,APPROVED
KY: LEXINGTON,01/10/2018 09:57:00,,2427.00,1445.00,413.00,228.00,133.00,157.00,97.00,53.00,APPROVED
KY: LEXINGTON,01/10/2018 10:58:00,,2398.00,1422.00,414.00,226.00,130.00,160.00,95.00,54.00,APPROVED
KY: LEXINGTON,01/10/2018 11:58:00,,2372.00,1422.00,414.00,226.00,134.00,156.00,97.00,53.00,APPROVED
KY: LEXINGTON,01/10/2018 12:58:00,,2315.00,1361.00,400.00,215.00,125.00,149.00,91.00,52.00,APPROVED
KY: LEXINGTON,01/10/2018 13:58:00,,2272.00,1315.00,385.00,204.00,123.00,142.00,89.00,49.00,APPROVED
KY: LEXINGTON,01/10/2018 14:58:00,,2263.00,1309.00,384.00,202.00,122.00,138.00,87.00,50.00,APPROVED
KY: LEXINGTON,01/10/2018 15:59:00,,2195.00,1261.00,374.00,196.00,118.00,139.00,87.00,50.00,APPROVED
KY: LEXINGTON,01/10/2018 16:59:00,,2084.00,1204.00,364.00,187.00,118.00,135.00,85.00,48.00,APPROVED
KY: LEXINGTON,01/10/2018 17:59:00,,2002.00,1146.00,356.00,181.00,114.00,133.00,85.00,50.00,APPROVED
KY: LEXINGTON,01/10/2018 18:59:00,,1975.00,1133.00,354.00,174.00,115.00,130.00,84.00,47.00,APPROVED
KY: LEXINGTON,01/10/2018 19:59:00,,1976.00,1126.00,355.00,176.00,115.00,132.00,83.00,48.00,APPROVED
KY: LEXINGTON,01/10/2018 21:00:00,,1972.00,1117.00,353.00,176.00,111.00,130.00,81.00,48.00,APPROVED
KY: LEXINGTON,01/10/2018 22:00:00,,1957.00,1102.00,347.00,178.00,111.00,128.00,83.00,47.00,APPROVED
KY: LEXINGTON,01/10/2018 23:00:00,,1979.00,1122.00,351.00,174.00,114.00,126.00,82.00,48.00,APPROVED
KY: LEXINGTON,01/11/2018 00:00:00,,2019.00,1144.00,353.00,177.00,118.00,130.00,84.00,49.00,APPROVED
KY: LEXINGTON,01/11/2018 01:00:00,,2045.00,1162.00,360.00,181.00,115.00,131.00,84.00,51.00,APPROVED
KY: LEXINGTON,01/11/2018 02:01:00,,2067.00,1174.00,354.00,180.00,114.00,129.00,82.00,49.00,APPROVED
KY: LEXINGTON,01/11/2018 03:01:00,,2051.00,1162.00,352.00,178.00,113.00,129.00,85.00,49.00,APPROVED
KY: LEXINGTON,01/11/2018 04:01:00,,2057.00,1171.00,354.00,180.00,115.00,133.00,83.00,50.00,APPROVED
KY: LEXINGTON,01/11/2018 05:01:00,,2083.00,1190.00,362.00,186.00,114.00,132.00,84.00,48.00,APPROVED
KY: LEXINGTON,01/11/2018 06:01:00,,2112.00,1203.00,365.00,184.00,116.00,134.00,87.00,50.00,APPROVED
KY: LEXINGTON,01/11/2018 07:02:00,,2095.00,1187.00,356.00,186.00,116.00,133.00,85.00,48.00,APPROVED
KY: LEXINGTON,01/11/2018 08:02:00,,2089.00,1191.00,363.00,184.00,114.00,131.00,87.00,50.00,APPROVED
KY: LEXINGTON,01/11/2018 09:02:00,,2101.00,1211.00,363.00,188.00,114.00,134.00,84.00,51.00,APPROVED
KY: LEXINGTON,01/11/2018 10:02:00,,2107.00,1205.00,364.00,185.00,117.00,134.00,85.00,49.00,APPROVED
KY: LEXINGTON,01/11/2018 11:02:00,,2115.00,1218.00,366.00,194.00,119.00,133.00,86.00,51.00,APPROVED
KY: LEXINGTON,01/11/2018 12:03:00,,2129.00,1229.00,372.00,188.00,119.00,136.00,89.00,48.00,APPROVED
KY: LEXINGTON,01/11/2018 13:03:00,,2134.00,1234.00,373.00,195.00,118.00,137.00,87.00,51.00,APPROVED
KY: LEXINGTON,01/11/2018 14:03:00,,2119.00,1239.00,371.00,192.00,119.00,138.00,86.00,52.00,APPROVED
KY: LEXINGTON,01/11/2018 15:03:00,,2108.00,1224.00,367.00,188.00,117.00,137.00,89.00,49.00,APPROVED
KY: LEXINGTON,01/11/2018 16:03:00,,2141.00,1239.00,375.00,195.00,117.00,139.00,87.00,49.00,APPROVED
KY: LEXINGTON,01/11/2018 17:04:00,,2134.00,1238.00,377.00,195.00,120.00,139.00,89.00,50.00,APPROVED
KY: LEXINGTON,01/11/2018 18:04:00,,2107.00,1227.00,369.00,193.00,117.00,138.00,87.00,50.00,APPROVED
KY: LEXINGTON,01/11/2018 19:31:00,,1992.00,1117.00,343.00,170.00,109.00,124.00,80.00,47.00,APPROVED
KY: LEXINGTON,01/11/2018 20:31:00,,1939.00,1091.00,343.00,172.00,112.00,128.00,81.00,48.00,APPROVED
KY: LEXINGTON,01/11/2018 21:31:00,,1945.00,1103.00,344.00,171.00,112.00,128.00,83.00,49.00,APPROVED
KY: LEXINGTON,01/11/2018 22:32:00,,1964.00,1118.00,346.00,172.00,113.00,126.00,82.00,48.00,APPROVED
KY: LEXINGTON,01/11/2018 23:32:00,,1991.00,1126.00,343.00,177.00,113.00,127.00,84.00,48.00,APPROVED
KY: LEXINGTON,01/12/2018 00:32:00,,1973.00,1122.00,348.00,176.00,113.00,130.00,83.00,47.00,APPROVED
KY: LEXINGTON,01/12/2018 01:32:00,,1959.00,1118.00,348.00,174.00,110.00,127.00,83.00,50.00,APPROVED
KY: LEXINGTON,01/12/2018 02:32:00,,1964.00,1106.00,353.00,173.00,112.00,127.00,82.00,49.00,APPROVED
KY: LEXINGTON,01/12/2018 03:33:00,,1976.00,1127.00,350.00,176.00,112.00,131.00,81.00,49.00,APPROVED
KY: LEXINGTON,01/12/2018 04:33:00,,1989.00,1135.00,350.00,180.00,114.00,131.00,83.00,48.00,APPROVED
KY: LEXINGTON,01/12/2018 05:33:00,,2027.00,1142.00,353.00,181.00,112.00,130.00,83.00,49.00,APPROVED
KY: LEXINGTON,01/12/2018 06:33:00,,2027.00,1159.00,354.00,179.00,113.00,131.00,84.00,47.00,APPROVED
KY: LEXINGTON,01/12/2018 07:33:00,,2036.00,1176.00,359.00,183.00,115.00,134.00,86.00,50.00,APPROVED
KY: LEXINGTON,01/12/2018 08:34:00,,2059.00,1208.00,368.00,190.00,119.00,135.00,88.00,49.00,APPROVED
KY: LEXINGTON,01/12/2018 09:34:00,,2073.00,1196.00,365.00,189.00,120.00,135.00,87.00,48.00,APPROVED
KY: LEXINGTON,01/12/2018 10:34:00,,2098.00,1216.00,369.00,193.00,121.00,137.00,88.00,50.00,APPROVED
KY: LEXINGTON,01/12/2018 11:34:00,,2166.00,1281.00,381.00,202.00,125.00,144.00,89.00,50.00,APPROVED
KY: LEXINGTON,01/12/2018 12:34:00,,2387.00,1458.00,437.00,235.00,137.00,164.00,100.00,52.00,APPROVED
KY: LEXINGTON,01/12/2018 13:35:00,,2887.00,1876.00,533.00,314.00,167.00,208.00,119.00,61.00,APPROVED
KY: LEXINGTON,01/12/2018 14:35:00,,3008.00,1974.00,559.00,335.00,172.00,217.00,126.00,60.00,APPROVED
KY: LEXINGTON,01/12/2018 15:35:00,,3117.00,1992.00,560.00,330.00,171.00,221.00,125.00,59.00,APPROVED
KY: LEXINGTON,01/12/2018 16:35:00,,3146.00,2005.00,567.00,327.00,173.00,221.00,125.00,61.00,APPROVED
KY: LEXINGTON,01/12/2018 17:35:00,,3026.00,1894.00,529.00,302.00,163.00,205.00,113.00,57.00,APPROVED
KY: LEXINGTON,01/12/2018 18:36:00,,3141.00,1993.00,565.00,328.00,170.00,218.00,122.00,60.00,APPROVED
KY: LEXINGTON,01/12/2018 19:36:00,,2744.00,1652.00,473.00,260.00,145.00,181.00,105.00,55.00,APPROVED
KY: LEXINGTON,01/12/2018 20:36:00,,2585.00,1507.00,426.00,225.00,134.00,160.00,94.00,53.00,APPROVED
KY: LEXINGTON,01/12/2018 21:36:00,,3293.00,2118.00,575.00,335.00,177.00,222.00,127.00,62.00,APPROVED
KY: LEXINGTON,01/12/2018 22:36:00,,3567.00,2341.00,661.00,390.00,194.00,256.00,139.00,62.00,APPROVED
KY: LEXINGTON,01/12/2018 23:37:00,,3222.00,2049.00,578.00,337.00,176.00,223.00,126.00,61.00,APPROVED
KY: LEXINGTON,01/13/2018 00:37:00,,3245.00,2050.00,580.00,337.00,179.00,224.00,124.00,59.00,APPROVED
KY: LEXINGTON,01/13/2018 01:37:00,,3107.00,1887.00,540.00,302.00,163.00,202.00,114.00,55.00,APPROVED
KY: LEXINGTON,01/13/2018 02:37:00,,2837.00,1647.00,464.00,253.00,139.00,174.00,100.00,53.00,APPROVED
KY: LEXINGTON,01/13/2018 03:37:00,,2784.00,1602.00,454.00,238.00,138.00,170.00,94.00,54.00,APPROVED
KY: LEXINGTON,01/13/2018 04:38:00,,2745.00,1557.00,442.00,232.00,135.00,164.00,94.00,51.00,APPROVED
KY: LEXINGTON,01/13/2018 05:38:00,,2575.00,1426.00,412.00,207.00,123.00,152.00,86.00,49.00,APPROVED
KY: LEXINGTON,01/13/2018 06:38:00,,2627.00,1466.00,419.00,212.00,125.00,154.00,87.00,49.00,APPROVED
KY: LEXINGTON,01/13/2018 07:38:00,,2455.00,1315.00,376.00,192.00,117.00,138.00,80.00,50.00,APPROVED
KY: LEXINGTON,01/13/2018 08:38:00,,2331.00,1236.00,350.00,174.00,106.00,127.00,74.00,46.00,APPROVED
KY: LEXINGTON,01/13/2018 09:39:00,,2313.00,1220.00,343.00,168.00,106.00,121.00,72.00,46.00,APPROVED
KY: LEXINGTON,01/13/2018 10:39:00,,2299.00,1198.00,337.00,166.00,106.00,120.00,71.00,45.00,APPROVED
KY: LEXINGTON,01/13/2018 11:39:00,,2288.00,1202.00,336.00,164.00,105.00,122.00,71.00,46.00,APPROVED
KY: LEXINGTON,01/13/2018 12:39:00,,2297.00,1198.00,334.00,167.00,105.00,117.00,73.00,46.00,APPROVED
KY: LEXINGTON,01/13/2018 13:39:00,,2300.00,1189.00,331.00,161.00,107.00,116.00,72.00,47.00,APPROVED
KY: LEXINGTON,01/13/2018 14:40:00,,2296.00,1193.00,337.00,160.00,105.00,121.00,70.00,44.00,APPROVED
KY: LEXINGTON,01/13/2018 15:40:00,,2303.00,1186.00,330.00,162.00,105.00,118.00,69.00,46.00,APPROVED
KY: LEXINGTON,01/13/2018 16:40:00,,2280.00,1175.00,331.00,161.00,103.00,118.00,71.00,46.00,APPROVED
KY: LEXINGTON,01/13/2018 17:40:00,,2277.00,1180.00,336.00,162.00,105.00,118.00,69.00,46.00,APPROVED